Time,TemperatureF,DewpointF,PressureIn,WindDirection,WindDirectionDegrees,WindSpeedMPH,WindSpeedGustMPH,Humidity,HourlyPrecipIn,Conditions,Clouds,dailyrainin,SoftwareType,DateUTC
2017-07-27 00:09:00,67.6,65.0,30.05,SE,130,0.0,0.0,91,0.00,,,0.00,weatherlink.com 1.10,2017-07-27 04:09:00,
2017-07-27 00:24:00,67.1,65.0,30.04,SE,130,0.0,0.0,91,0.00,,,0.00,weatherlink.com 1.10,2017-07-27 04:24:00,
2017-07-27 00:39:00,66.8,64.0,30.04,SE,130,0.0,0.0,90,0.00,,,0.00,weatherlink.com 1.10,2017-07-27 04:39:00,
2017-07-27 00:54:00,66.5,64.0,30.03,SE,130,0.0,0.0,90,0.00,,,0.00,weatherlink.com 1.10,2017-07-27 04:54:00,
2017-07-27 01:09:00,66.2,63.0,30.03,SE,130,0.0,0.0,90,0.00,,,0.00,weatherlink.com 1.10,2017-07-27 05:09:00,
2017-07-27 01:24:00,65.9,63.0,30.02,SE,130,0.0,0.0,90,0.00,,,0.00,weatherlink.com 1.10,2017-07-27 05:24:00,
2017-07-27 01:39:00,65.6,63.0,30.02,SE,130,0.0,0.0,90,0.00,,,0.00,weatherlink.com 1.10,2017-07-27 05:39:00,
2017-07-27 01:54:00,65.4,62.0,30.02,SE,130,0.0,0.0,89,0.00,,,0.00,weatherlink.com 1.10,2017-07-27 05:54:00,
2017-07-27 07:52:00,65.7,62.0,29.98,ESE,113,0.0,0.0,86,0.01,,,0.01,weatherlink.com 1.10,2017-07-27 11:52:00,
2017-07-27 08:09:00,66.6,62.0,29.98,East,96,0.0,0.0,86,0.00,,,0.01,weatherlink.com 1.10,2017-07-27 12:09:00,
2017-07-27 08:24:00,67.4,63.0,29.98,East,94,0.0,1.0,86,0.00,,,0.01,weatherlink.com 1.10,2017-07-27 12:24:00,
2017-07-27 08:39:00,68.1,64.0,29.98,East,94,0.0,1.0,86,0.00,,,0.01,weatherlink.com 1.10,2017-07-27 12:39:00,
2017-07-27 08:54:00,68.8,65.0,29.98,East,94,0.0,1.0,86,0.00,,,0.01,weatherlink.com 1.10,2017-07-27 12:54:00,
2017-07-27 09:09:00,69.4,65.0,29.97,East,94,0.0,0.0,87,0.00,,,0.01,weatherlink.com 1.10,2017-07-27 13:09:00,
2017-07-27 09:24:00,70.2,67.0,29.97,East,96,0.0,3.0,88,0.00,,,0.01,weatherlink.com 1.10,2017-07-27 13:24:00,
2017-07-27 09:39:00,70.8,68.0,29.96,East,96,1.0,2.0,91,0.00,,,0.01,weatherlink.com 1.10,2017-07-27 13:39:00,
2017-07-27 10:01:00,71.5,69.0,29.96,East,96,0.0,3.0,91,0.00,,,0.01,weatherlink.com 1.10,2017-07-27 14:01:00,
2017-07-27 10:10:00,72.3,70.0,29.96,SE,143,5.0,5.0,91,0.00,,,0.01,weatherlink.com 1.10,2017-07-27 14:10:00,
2017-07-27 10:25:00,73.0,70.0,29.95,SE,140,0.0,4.0,90,0.00,,,0.01,weatherlink.com 1.10,2017-07-27 14:25:00,
2017-07-27 10:40:00,73.6,70.0,29.95,SE,144,1.0,3.0,89,0.00,,,0.01,weatherlink.com 1.10,2017-07-27 14:40:00,
2017-07-27 10:55:00,74.8,71.0,29.94,SSE,157,0.0,4.0,87,0.00,,,0.01,weatherlink.com 1.10,2017-07-27 14:55:00,
2017-07-27 11:10:00,76.4,72.0,29.94,South,173,3.0,4.0,87,0.00,,,0.01,weatherlink.com 1.10,2017-07-27 15:10:00,
2017-07-27 11:25:00,76.9,72.0,29.93,SE,130,1.0,5.0,84,0.00,,,0.01,weatherlink.com 1.10,2017-07-27 15:25:00,
2017-07-27 11:40:00,77.3,71.0,29.93,SE,144,0.0,3.0,82,0.00,,,0.01,weatherlink.com 1.10,2017-07-27 15:40:00,